Flag for Philippines Weather past 2 weeks in Olongapo, Philippines

Now
77 °F

Passing clouds.


Feels Like: 79 °F
Forecast: 77 / 89 °F
Wind: 2 mph from North

Location: Subic Bay Weather Station

Current Time: Aug 28, 2014 at 11:15:02 PM

Latest Report: Aug 28, 2014 at 10:00 PM


Visibility: N/A

Pressure: 29.83 "Hg

Humidity: 79%

Dew point: 70 °F

Location of OlongapoLocation

Historic Weather in Olongapo — Graph

°F

Olongapo temperature yesterday

Maximum temperature yesterday: 86 °F (at 12:00 PM)
Minimum temperature yesterday: 75 °F (at 12:00 AM)
Average temperature yesterday: 81 °F

Past Weeks' High & Low Weather Summary

 TemperatureHumidityPressure
High90 °F (Aug 14, 12:00 PM)100% (Aug 16, 10:00 PM)29.92 "Hg (Aug 16, 10:00 PM)
Low75 °F (Aug 14, 6:00 AM)55% (Aug 14, 11:00 AM)29.71 "Hg (Aug 16, 2:00 PM)
Average81 °F79%29.81 "Hg
* Reported Aug 13 10:00 PM — Aug 28 10:00 PM, Olongapo, Weather by CustomWeather, © 2014

Note: Actual official high and low records may vary slightly from our data, if they occured in-between our weather recording intervals... More about our weather records

Advertising

Olongapo weather history for previous 24 hours

 ConditionsComfort  
Time TempWeatherWind HumidityBarometerVisibility
10:00 PM
Aug 28
77 °FPassing clouds.2 mph79%29.83 "HgN/A
9:00 PM77 °FPassing clouds.No wind79%29.83 "HgN/A
8:00 PM77 °FPassing clouds.3 mph79%29.83 "HgN/A
7:00 PM75 °FOvercast.2 mph83%29.83 "HgN/A
6:00 PM75 °FOvercast.5 mph89%29.80 "HgN/A
5:00 PM75 °FMore clouds than sun.5 mph83%29.77 "HgN/A
4:00 PM75 °FLight rain. More clouds than sun.6 mph89%29.80 "Hg6 mi
3:00 PM75 °FMore clouds than sun.13 mph89%29.80 "Hg6 mi
2:00 PM86 °FPartly sunny.9 mph70%29.80 "HgN/A
1:00 PM86 °FPartly sunny.10 mph66%29.83 "HgN/A
12:00 PM88 °FBroken clouds.9 mph62%29.83 "HgN/A
11:00 AM86 °FBroken clouds.13 mph66%29.86 "HgN/A
10:00 AM86 °FBroken clouds.6 mph66%29.83 "HgN/A
9:00 AM82 °FBroken clouds.1 mph74%29.83 "HgN/A
8:00 AM79 °FBroken clouds.1 mph84%29.86 "HgN/A
7:00 AM77 °FBroken clouds.3 mph89%29.86 "HgN/A
6:00 AM75 °FBroken clouds.2 mph94%29.83 "HgN/A
5:00 AM75 °FPassing clouds.2 mph89%29.83 "HgN/A
4:00 AM75 °FPassing clouds.2 mph94%29.83 "HgN/A
2:00 AM75 °FPassing clouds.1 mph94%29.80 "Hg6 mi
1:00 AM77 °FPassing clouds.1 mph89%29.86 "Hg6 mi
12:00 AM75 °FRain. Mostly cloudy.10 mph89%29.89 "Hg5 mi
Weather by CustomWeather, © 2014

See weather overviewHow to use our weather pages